Flag for Germany Weather past 2 weeks in Frankfurt, Hesse, Germany

Now
72 °F

Partly sunny.


Feels Like: 76 °F
Forecast: 55 / 64 °F
Wind: 12 mph from West

Location: Frankfurt-M-Flughafen Airport

Current Time: Aug 30, 2014 at 4:44:43 PM

Latest Report: Aug 30, 2014 at 4:20 PM


Visibility: N/A

Pressure: 30.04 "Hg

Humidity: 57%

Dew point: 55 °F

Location of FrankfurtLocation

Historic Weather in Frankfurt — Graph

°F

Frankfurt temperature yesterday

Maximum temperature yesterday: 75 °F (at 2:50 PM)
Minimum temperature yesterday: 61 °F (at 1:20 AM)
Average temperature yesterday: 67 °F

Past Weeks' High & Low Weather Summary

 TemperatureHumidityPressure
High75 °F (Aug 28, 3:20 PM)100% (Aug 15, 11:50 PM)30.12 "Hg (Aug 15, 11:50 PM)
Low46 °F (Aug 20, 5:20 AM)33% (Aug 22, 4:50 PM)29.65 "Hg (Aug 26, 5:20 AM)
Average60 °F78%29.97 "Hg
* Reported Aug 15 3:50 PM — Aug 30 3:50 PM, Frankfurt, Weather by CustomWeather, © 2014

Note: Actual official high and low records may vary slightly from our data, if they occured in-between our weather recording intervals... More about our weather records

Advertising

Frankfurt weather history for previous 24 hours

 ConditionsComfort  
Time TempWeatherWind HumidityBarometerVisibility
3:50 PM
Aug 30
73 °FBroken clouds.9 mph53%30.04 "HgN/A
3:20 PM72 °FPartly sunny.14 mph53%30.07 "HgN/A
2:50 PM72 °FPartly sunny.9 mph53%30.07 "HgN/A
2:20 PM72 °FScattered clouds.13 mph57%30.07 "HgN/A
1:50 PM70 °FScattered clouds.9 mph60%30.07 "HgN/A
1:20 PM70 °FScattered clouds.13 mph60%30.07 "HgN/A
12:50 PM72 °FScattered clouds.14 mph57%30.07 "HgN/A
12:20 PM68 °FScattered clouds.9 mph60%30.09 "HgN/A
11:50 AM68 °FScattered clouds.9 mph73%30.09 "HgN/A
11:20 AM68 °FScattered clouds.7 mph69%30.09 "HgN/A
10:50 AM66 °FPartly sunny.7 mph78%30.09 "HgN/A
10:20 AM64 °FPartly sunny.8 mph78%30.09 "HgN/A
9:50 AM64 °FPartly sunny.8 mph83%30.09 "HgN/A
9:20 AM63 °FSunny.6 mph88%30.09 "Hg10 mi
8:50 AM61 °FSunny.7 mph94%30.09 "Hg10 mi
8:20 AM61 °FSunny.6 mph94%30.09 "Hg10 mi
7:50 AM59 °FSunny.6 mph100%30.09 "Hg10 mi
7:20 AM59 °FClear.5 mph100%30.07 "Hg10 mi
6:50 AM59 °FLight fog.5 mph94%30.07 "HgN/A
6:20 AM61 °FLight fog.5 mph94%30.07 "HgN/A
5:50 AM59 °FClear.3 mph94%30.07 "Hg10 mi
5:20 AM61 °FClear.5 mph94%30.07 "Hg10 mi
4:50 AM59 °FClear.3 mph94%30.07 "Hg10 mi
4:20 AM61 °FClear.6 mph94%30.07 "Hg10 mi
3:50 AM61 °FClear.6 mph94%30.07 "Hg10 mi
3:20 AM61 °FClear.7 mph94%30.07 "Hg10 mi
2:50 AM63 °FClear.6 mph88%30.07 "Hg10 mi
2:20 AM64 °FPassing clouds.3 mph88%30.07 "HgN/A
1:50 AM64 °FPassing clouds.1 mph88%30.07 "HgN/A
1:20 AM64 °FPassing clouds.3 mph94%30.07 "HgN/A
12:50 AM64 °FPassing clouds.3 mph88%30.04 "HgN/A
12:20 AM64 °FPartly cloudy.3 mph88%30.04 "HgN/A
11:50 PM
Aug 29
64 °FPartly cloudy.3 mph88%30.04 "HgN/A
11:20 PM66 °FPassing clouds.2 mph83%30.04 "HgN/A
9:20 PM68 °FClear.7 mph78%30.01 "Hg10 mi
8:50 PM70 °FSunny.9 mph73%30.01 "Hg10 mi
8:20 PM72 °FSunny.5 mph61%29.98 "Hg10 mi
7:50 PM72 °FSunny.3 mph65%29.98 "Hg10 mi
7:20 PM73 °FSunny.6 mph57%29.98 "Hg10 mi
6:50 PM73 °FSunny.6 mph57%29.98 "Hg10 mi
6:20 PM73 °FSunny.8 mph57%29.98 "Hg10 mi
5:50 PM75 °FSunny.9 mph50%29.98 "Hg10 mi
5:20 PM75 °FSunny.10 mph47%29.98 "Hg10 mi
4:50 PM75 °FPassing clouds.5 mph47%29.98 "HgN/A
4:20 PM73 °FScattered clouds.9 mph53%30.01 "HgN/A
Weather by CustomWeather, © 2014

See weather overviewHow to use our weather pages